Time,TemperatureF,DewpointF,PressureIn,WindDirection,WindDirectionDegrees,WindSpeedMPH,WindSpeedGustMPH,Humidity,HourlyPrecipIn,Conditions,Clouds,dailyrainin,SoftwareType,DateUTC
2013-02-25 00:02:00,61.0,60.0,29.73,SE,137,2.0,10.0,98,0.00,,,0.01,,2013-02-25 06:02:00,
2013-02-25 00:11:00,61.0,60.0,29.73,SE,137,2.0,10.0,98,0.00,,,0.01,,2013-02-25 06:11:00,
2013-02-25 00:21:00,61.0,60.0,29.72,SE,145,6.0,12.0,98,0.00,,,0.01,,2013-02-25 06:21:00,
2013-02-25 00:31:00,61.0,60.0,29.73,ESE,115,3.0,9.0,98,0.00,,,0.02,,2013-02-25 06:31:00,
2013-02-25 00:41:00,61.0,60.0,29.73,ESE,115,3.0,9.0,98,0.00,,,0.02,,2013-02-25 06:41:00,
2013-02-25 00:52:00,61.0,60.0,29.72,SE,142,3.0,10.0,98,0.00,,,0.02,,2013-02-25 06:52:00,
2013-02-25 01:01:00,61.0,60.0,29.70,SE,129,5.0,9.0,98,0.00,,,0.02,,2013-02-25 07:01:00,
2013-02-25 01:11:00,61.0,60.0,29.71,SE,135,4.0,10.0,98,0.01,,,0.02,,2013-02-25 07:11:00,
2013-02-25 01:21:00,61.0,60.0,29.71,SE,135,4.0,10.0,98,0.01,,,0.02,,2013-02-25 07:21:00,
2013-02-25 01:31:00,62.0,61.0,29.72,ESE,117,4.0,9.0,98,0.00,,,0.02,,2013-02-25 07:31:00,
2013-02-25 01:41:00,62.0,61.0,29.72,ESE,117,4.0,9.0,98,0.00,,,0.02,,2013-02-25 07:41:00,
2013-02-25 01:52:00,62.0,61.0,29.74,WSW,240,4.0,7.0,98,0.00,,,0.02,,2013-02-25 07:52:00,
2013-02-25 02:01:00,62.0,61.0,29.72,SSE,152,5.0,7.0,98,0.00,,,0.02,,2013-02-25 08:01:00,
2013-02-25 02:11:00,62.0,61.0,29.71,SE,131,0.0,7.0,98,0.00,,,0.02,,2013-02-25 08:11:00,
2013-02-25 02:21:00,62.0,61.0,29.71,SE,131,0.0,7.0,98,0.00,,,0.02,,2013-02-25 08:21:00,
2013-02-25 02:31:00,62.0,61.0,29.71,SE,131,0.0,7.0,98,0.00,,,0.02,,2013-02-25 08:31:00,
2013-02-25 02:41:00,62.0,61.0,29.71,SE,131,0.0,7.0,98,0.00,,,0.02,,2013-02-25 08:41:00,
2013-02-25 02:52:00,62.0,61.0,29.70,SE,146,5.0,6.0,98,0.00,,,0.02,,2013-02-25 08:52:00,
2013-02-25 03:01:00,62.0,61.0,29.70,SE,146,5.0,6.0,98,0.00,,,0.02,,2013-02-25 09:01:00,
2013-02-25 03:12:00,62.0,61.0,29.70,SE,146,5.0,6.0,98,0.00,,,0.02,,2013-02-25 09:12:00,
2013-02-25 03:21:00,62.0,62.0,29.67,SSE,154,5.0,9.0,99,0.00,,,0.02,,2013-02-25 09:21:00,
2013-02-25 03:31:00,62.0,62.0,29.67,SE,132,6.0,10.0,99,0.00,,,0.02,,2013-02-25 09:31:00,
2013-02-25 03:42:00,62.0,62.0,29.67,SE,132,6.0,10.0,99,0.00,,,0.02,,2013-02-25 09:42:00,
2013-02-25 03:52:00,62.0,61.0,29.67,SSE,147,6.0,8.0,98,0.00,,,0.02,,2013-02-25 09:52:00,
2013-02-25 04:01:00,62.0,61.0,29.67,SE,135,2.0,8.0,98,0.00,,,0.02,,2013-02-25 10:01:00,
2013-02-25 04:11:00,62.0,61.0,29.66,SE,132,3.0,7.0,98,0.00,,,0.02,,2013-02-25 10:11:00,
2013-02-25 04:21:00,62.0,61.0,29.66,SE,132,3.0,7.0,98,0.00,,,0.02,,2013-02-25 10:21:00,
2013-02-25 04:31:00,62.0,61.0,29.66,SE,132,3.0,7.0,98,0.00,,,0.02,,2013-02-25 10:31:00,
2013-02-25 04:42:00,62.0,61.0,29.66,SE,132,3.0,7.0,98,0.00,,,0.02,,2013-02-25 10:42:00,
2013-02-25 04:52:00,63.0,62.0,29.66,SSE,159,5.0,8.0,98,0.00,,,0.02,,2013-02-25 10:52:00,
2013-02-25 05:01:00,63.0,62.0,29.66,SSE,159,5.0,8.0,98,0.00,,,0.02,,2013-02-25 11:01:00,
2013-02-25 05:11:00,63.0,62.0,29.66,SSE,159,5.0,8.0,98,0.00,,,0.02,,2013-02-25 11:11:00,
2013-02-25 05:21:00,63.0,62.0,29.66,SSE,151,5.0,7.0,98,0.00,,,0.02,,2013-02-25 11:21:00,
2013-02-25 05:32:00,63.0,62.0,29.65,SE,141,6.0,9.0,98,0.00,,,0.02,,2013-02-25 11:32:00,
2013-02-25 05:42:00,63.0,62.0,29.65,SE,141,6.0,9.0,98,0.00,,,0.02,,2013-02-25 11:42:00,
2013-02-25 05:52:00,63.0,62.0,29.66,SSE,150,5.0,9.0,98,0.00,,,0.02,,2013-02-25 11:52:00,
2013-02-25 06:01:00,63.0,62.0,29.66,SSE,150,5.0,9.0,98,0.00,,,0.02,,2013-02-25 12:01:00,
2013-02-25 06:11:00,63.0,62.0,29.66,SSE,150,5.0,9.0,98,0.00,,,0.02,,2013-02-25 12:11:00,
2013-02-25 06:21:00,64.0,63.0,29.67,SSE,151,2.0,9.0,98,0.00,,,0.02,,2013-02-25 12:21:00,
2013-02-25 06:32:00,64.0,63.0,29.67,SSE,151,2.0,9.0,98,0.00,,,0.02,,2013-02-25 12:32:00,
2013-02-25 06:42:00,64.0,63.0,29.67,SSE,151,2.0,9.0,98,0.00,,,0.02,,2013-02-25 12:42:00,
2013-02-25 06:55:00,64.0,63.0,29.68,ESE,117,3.0,9.0,98,0.00,,,0.01,,2013-02-25 12:55:00,
2013-02-25 07:02:00,63.0,62.0,29.67,SE,144,6.0,8.0,98,0.00,,,0.01,,2013-02-25 13:02:00,
2013-02-25 07:12:00,63.0,62.0,29.67,SE,144,6.0,8.0,98,0.00,,,0.01,,2013-02-25 13:12:00,
2013-02-25 07:22:00,63.0,62.0,29.67,SE,142,6.0,9.0,98,0.00,,,0.01,,2013-02-25 13:22:00,
2013-02-25 07:32:00,63.0,62.0,29.67,SSE,155,6.0,9.0,98,0.00,,,0.01,,2013-02-25 13:32:00,
2013-02-25 07:42:00,63.0,62.0,29.67,SSE,155,6.0,9.0,98,0.00,,,0.01,,2013-02-25 13:42:00,
2013-02-25 07:52:00,64.0,63.0,29.67,SSE,151,5.0,10.0,97,0.00,,,0.01,,2013-02-25 13:52:00,
2013-02-25 08:03:00,64.0,63.0,29.67,SE,142,5.0,9.0,97,0.00,,,0.01,,2013-02-25 14:03:00,
2013-02-25 08:17:00,64.0,63.0,29.67,SE,142,5.0,9.0,97,0.00,,,0.01,,2013-02-25 14:17:00,
2013-02-25 08:32:00,64.0,63.0,29.68,SSE,151,7.0,10.0,97,0.00,,,0.01,,2013-02-25 14:32:00,
2013-02-25 08:42:00,64.0,63.0,29.68,SSE,151,7.0,10.0,97,0.00,,,0.01,,2013-02-25 14:42:00,
2013-02-25 08:52:00,64.0,63.0,29.68,SSE,157,7.0,10.0,97,0.00,,,0.01,,2013-02-25 14:52:00,
2013-02-25 09:02:00,64.0,63.0,29.68,SSE,155,7.0,12.0,98,0.00,,,0.01,,2013-02-25 15:02:00,
2013-02-25 09:11:00,64.0,63.0,29.68,SSE,155,7.0,12.0,98,0.00,,,0.01,,2013-02-25 15:11:00,
2013-02-25 09:21:00,65.0,64.0,29.68,SSE,153,4.0,9.0,98,0.00,,,0.01,,2013-02-25 15:21:00,
2013-02-25 09:32:00,65.0,64.0,29.68,SSE,164,6.0,10.0,98,0.00,,,0.01,,2013-02-25 15:32:00,
2013-02-25 09:41:00,65.0,64.0,29.68,SSE,164,6.0,10.0,98,0.00,,,0.01,,2013-02-25 15:41:00,
2013-02-25 09:52:00,65.0,64.0,29.68,SSE,159,6.0,10.0,98,0.00,,,0.01,,2013-02-25 15:52:00,
2013-02-25 10:01:00,65.0,64.0,29.67,SSE,151,6.0,10.0,98,0.00,,,0.01,,2013-02-25 16:01:00,
2013-02-25 10:11:00,65.0,64.0,29.67,SSE,151,6.0,10.0,98,0.00,,,0.01,,2013-02-25 16:11:00,
2013-02-25 10:21:00,65.0,64.0,29.67,SSE,148,7.0,9.0,98,0.00,,,0.01,,2013-02-25 16:21:00,
2013-02-25 10:31:00,66.0,65.0,29.67,SE,140,6.0,9.0,98,0.00,,,0.01,,2013-02-25 16:31:00,
2013-02-25 10:42:00,66.0,65.0,29.67,SE,140,6.0,9.0,98,0.00,,,0.01,,2013-02-25 16:42:00,
2013-02-25 10:52:00,66.0,65.0,29.67,SE,132,5.0,9.0,98,0.00,,,0.01,,2013-02-25 16:52:00,
2013-02-25 11:01:00,66.0,65.0,29.66,SSE,149,5.0,10.0,98,0.00,,,0.01,,2013-02-25 17:01:00,
2013-02-25 11:11:00,66.0,65.0,29.66,SSE,149,5.0,10.0,98,0.00,,,0.01,,2013-02-25 17:11:00,
2013-02-25 11:21:00,66.0,65.0,29.65,SSE,150,8.0,12.0,98,0.00,,,0.01,,2013-02-25 17:21:00,
2013-02-25 11:31:00,67.0,66.0,29.65,SSE,164,7.0,12.0,98,0.00,,,0.01,,2013-02-25 17:31:00,
2013-02-25 11:41:00,67.0,66.0,29.65,SSE,164,7.0,12.0,98,0.00,,,0.01,,2013-02-25 17:41:00,
2013-02-25 11:52:00,66.0,65.0,29.63,SSE,155,9.0,13.0,98,0.00,,,0.01,,2013-02-25 17:52:00,
2013-02-25 12:01:00,67.0,66.0,29.62,SSE,156,7.0,14.0,98,0.00,,,0.01,,2013-02-25 18:01:00,
2013-02-25 12:12:00,67.0,66.0,29.62,SSE,156,7.0,14.0,98,0.00,,,0.01,,2013-02-25 18:12:00,
2013-02-25 12:21:00,67.0,66.0,29.59,SSE,167,7.0,12.0,98,0.00,,,0.01,,2013-02-25 18:21:00,
2013-02-25 12:32:00,67.0,66.0,29.58,SSE,165,7.0,13.0,98,0.00,,,0.01,,2013-02-25 18:32:00,
2013-02-25 12:41:00,67.0,66.0,29.58,SSE,165,7.0,13.0,98,0.00,,,0.01,,2013-02-25 18:41:00,
2013-02-25 12:52:00,66.0,65.0,29.57,SSE,154,7.0,12.0,98,0.00,,,0.01,,2013-02-25 18:52:00,
2013-02-25 13:01:00,66.0,65.0,29.57,SSE,159,9.0,17.0,98,0.00,,,0.01,,2013-02-25 19:01:00,
2013-02-25 13:11:00,66.0,65.0,29.57,SSE,159,9.0,17.0,98,0.00,,,0.01,,2013-02-25 19:11:00,
2013-02-25 13:21:00,66.0,65.0,29.56,South,173,6.0,17.0,98,0.00,,,0.01,,2013-02-25 19:21:00,
2013-02-25 13:31:00,66.0,65.0,29.51,ESE,117,4.0,15.0,98,0.00,,,0.01,,2013-02-25 19:31:00,
2013-02-25 13:41:00,66.0,65.0,29.51,ESE,117,4.0,15.0,98,0.00,,,0.01,,2013-02-25 19:41:00,
2013-02-25 13:52:00,66.0,65.0,29.53,SSE,161,2.0,9.0,98,0.01,,,0.02,,2013-02-25 19:52:00,
2013-02-25 14:01:00,67.0,66.0,29.48,SSE,160,13.0,20.0,98,0.01,,,0.02,,2013-02-25 20:01:00,
2013-02-25 14:11:00,67.0,66.0,29.48,SSE,160,13.0,20.0,98,0.01,,,0.02,,2013-02-25 20:11:00,
2013-02-25 14:21:00,68.0,67.0,29.49,South,178,3.0,14.0,98,0.01,,,0.02,,2013-02-25 20:21:00,
2013-02-25 14:32:00,68.0,67.0,29.49,South,185,5.0,15.0,98,0.01,,,0.02,,2013-02-25 20:32:00,
2013-02-25 14:41:00,68.0,67.0,29.49,South,185,5.0,15.0,98,0.01,,,0.02,,2013-02-25 20:41:00,
2013-02-25 14:52:00,68.0,67.0,29.48,SSE,164,3.0,13.0,97,0.00,,,0.02,,2013-02-25 20:52:00,
2013-02-25 15:01:00,68.0,67.0,29.48,SE,137,1.0,10.0,97,0.00,,,0.02,,2013-02-25 21:01:00,
2013-02-25 15:11:00,68.0,67.0,29.48,SE,137,1.0,10.0,97,0.00,,,0.02,,2013-02-25 21:11:00,
2013-02-25 15:21:00,68.0,67.0,29.44,SSE,153,5.0,9.0,98,0.00,,,0.02,,2013-02-25 21:21:00,
2013-02-25 15:31:00,68.0,67.0,29.45,SE,141,5.0,10.0,98,0.00,,,0.02,,2013-02-25 21:31:00,
2013-02-25 15:42:00,68.0,67.0,29.45,SE,141,5.0,10.0,98,0.00,,,0.02,,2013-02-25 21:42:00,
2013-02-25 15:52:00,68.0,67.0,29.45,SSE,153,2.0,8.0,98,0.00,,,0.02,,2013-02-25 21:52:00,
2013-02-25 16:01:00,68.0,67.0,29.42,SSE,150,1.0,7.0,98,0.00,,,0.02,,2013-02-25 22:01:00,
2013-02-25 16:11:00,68.0,67.0,29.42,SSE,150,1.0,7.0,98,0.00,,,0.02,,2013-02-25 22:11:00,
2013-02-25 16:21:00,70.0,69.0,29.42,SW,230,8.0,14.0,98,0.00,,,0.02,,2013-02-25 22:21:00,
2013-02-25 16:32:00,70.0,69.0,29.42,SW,230,8.0,14.0,98,0.00,,,0.02,,2013-02-25 22:32:00,
2013-02-25 16:42:00,70.0,69.0,29.42,SW,230,8.0,14.0,98,0.00,,,0.02,,2013-02-25 22:42:00,
2013-02-25 16:52:00,70.0,69.0,29.43,WSW,245,6.0,15.0,97,0.00,,,0.02,,2013-02-25 22:52:00,
2013-02-25 17:01:00,70.0,69.0,29.42,SW,234,5.0,9.0,97,0.00,,,0.02,,2013-02-25 23:01:00,
2013-02-25 17:11:00,70.0,69.0,29.42,SW,234,5.0,9.0,97,0.00,,,0.02,,2013-02-25 23:11:00,
2013-02-25 17:22:00,70.0,69.0,29.43,WSW,251,9.0,15.0,96,0.00,,,0.02,,2013-02-25 23:22:00,
2013-02-25 17:31:00,70.0,69.0,29.44,WSW,249,9.0,14.0,96,0.00,,,0.02,,2013-02-25 23:31:00,
2013-02-25 17:41:00,70.0,69.0,29.44,WSW,249,9.0,14.0,96,0.00,,,0.02,,2013-02-25 23:41:00,
2013-02-25 17:52:00,69.0,68.0,29.45,West,259,5.0,12.0,96,0.00,,,0.02,,2013-02-25 23:52:00,
2013-02-25 18:01:00,69.0,68.0,29.45,West,269,6.0,12.0,96,0.00,,,0.02,,2013-02-26 00:01:00,
2013-02-25 18:11:00,69.0,68.0,29.45,West,269,6.0,12.0,96,0.00,,,0.02,,2013-02-26 00:11:00,
2013-02-25 18:21:00,68.0,66.0,29.47,West,270,5.0,10.0,93,0.00,,,0.02,,2013-02-26 00:21:00,
2013-02-25 18:32:00,68.0,65.0,29.48,West,268,5.0,10.0,90,0.00,,,0.02,,2013-02-26 00:32:00,
2013-02-25 18:42:00,68.0,65.0,29.48,West,268,5.0,10.0,90,0.00,,,0.02,,2013-02-26 00:42:00,
2013-02-25 18:52:00,68.0,63.0,29.48,West,270,3.0,9.0,83,0.00,,,0.02,,2013-02-26 00:52:00,
2013-02-25 19:02:00,67.0,61.0,29.49,West,264,3.0,8.0,81,0.00,,,0.02,,2013-02-26 01:02:00,
2013-02-25 19:11:00,67.0,61.0,29.49,West,264,3.0,8.0,81,0.00,,,0.02,,2013-02-26 01:11:00,
2013-02-25 19:21:00,66.0,58.0,29.50,West,260,3.0,8.0,76,0.00,,,0.02,,2013-02-26 01:21:00,
2013-02-25 19:31:00,66.0,57.0,29.50,West,261,4.0,7.0,73,0.00,,,0.02,,2013-02-26 01:31:00,
2013-02-25 19:41:00,66.0,57.0,29.50,West,261,4.0,7.0,73,0.00,,,0.02,,2013-02-26 01:41:00,
2013-02-25 19:52:00,65.0,56.0,29.51,WSW,256,3.0,8.0,74,0.00,,,0.02,,2013-02-26 01:52:00,
2013-02-25 20:01:00,64.0,56.0,29.52,WSW,254,3.0,6.0,74,0.00,,,0.02,,2013-02-26 02:01:00,
2013-02-25 20:11:00,64.0,56.0,29.52,WSW,254,3.0,6.0,74,0.00,,,0.02,,2013-02-26 02:11:00,
2013-02-25 20:21:00,64.0,53.0,29.52,West,270,5.0,8.0,67,0.00,,,0.02,,2013-02-26 02:21:00,
2013-02-25 20:32:00,64.0,49.0,29.53,West,265,5.0,10.0,58,0.00,,,0.02,,2013-02-26 02:32:00,
2013-02-25 20:41:00,64.0,49.0,29.53,West,265,5.0,10.0,58,0.00,,,0.02,,2013-02-26 02:41:00,
2013-02-25 20:52:00,63.0,48.0,29.54,West,272,3.0,8.0,59,0.00,,,0.02,,2013-02-26 02:52:00,
2013-02-25 21:02:00,63.0,48.0,29.55,SW,229,2.0,8.0,58,0.00,,,0.02,,2013-02-26 03:02:00,
2013-02-25 21:11:00,63.0,48.0,29.55,SW,229,2.0,8.0,58,0.00,,,0.02,,2013-02-26 03:11:00,
2013-02-25 21:21:00,62.0,46.0,29.57,West,280,1.0,7.0,55,0.00,,,0.02,,2013-02-26 03:21:00,
2013-02-25 21:32:00,62.0,44.0,29.58,WNW,288,3.0,10.0,51,0.00,,,0.02,,2013-02-26 03:32:00,
2013-02-25 21:41:00,62.0,44.0,29.58,WNW,288,3.0,10.0,51,0.00,,,0.02,,2013-02-26 03:41:00,
2013-02-25 21:52:00,61.0,43.0,29.58,WNW,301,2.0,9.0,51,0.00,,,0.02,,2013-02-26 03:52:00,
2013-02-25 22:01:00,61.0,44.0,29.60,NW,319,2.0,8.0,53,0.00,,,0.02,,2013-02-26 04:01:00,
2013-02-25 22:11:00,61.0,44.0,29.60,NW,319,2.0,8.0,53,0.00,,,0.02,,2013-02-26 04:11:00,
2013-02-25 22:21:00,60.0,43.0,29.62,NW,319,6.0,14.0,53,0.00,,,0.02,,2013-02-26 04:21:00,
2013-02-25 22:32:00,59.0,42.0,29.62,WNW,293,3.0,14.0,54,0.00,,,0.02,,2013-02-26 04:32:00,
2013-02-25 22:42:00,59.0,42.0,29.62,WNW,293,3.0,14.0,54,0.00,,,0.02,,2013-02-26 04:42:00,
2013-02-25 22:52:00,58.0,45.0,29.64,NW,305,1.0,6.0,62,0.00,,,0.02,,2013-02-26 04:52:00,
2013-02-25 23:01:00,57.0,43.0,29.64,WNW,283,3.0,8.0,60,0.00,,,0.02,,2013-02-26 05:01:00,
2013-02-25 23:11:00,56.0,42.0,29.65,West,277,4.0,15.0,60,0.00,,,0.02,,2013-02-26 05:11:00,
2013-02-25 23:21:00,56.0,42.0,29.65,West,277,4.0,15.0,60,0.00,,,0.02,,2013-02-26 05:21:00,
2013-02-25 23:31:00,56.0,42.0,29.65,West,277,4.0,15.0,60,0.00,,,0.02,,2013-02-26 05:31:00,
2013-02-25 23:42:00,56.0,42.0,29.65,West,277,4.0,15.0,60,0.00,,,0.02,,2013-02-26 05:42:00,
2013-02-25 23:52:00,55.0,39.0,29.66,West,278,7.0,13.0,55,0.00,,,0.02,,2013-02-26 05:52:00,